Location: Observatoire de l'Aigle
(47.0607°N, 71.3152°W)
Time: 07:47:16
(UTC-04:00)

Amateur Radio Satellites - All Passes

Search period start: 01 May 2016 07:17
Search period end: 02 May 2016 07:17
Location: Observatoire de l'Aigle, 47.0607°N, 71.3152°W

Satellite Date Start Highest point End Downlink Frequencies (MHz)
Time Altitude Azimuth
CUTE-I 01 May 07:17:51 07:23:12 81° 104° (ESE) 07:28:32 437.470
ISS 01 May 07:30:30 07:32:13 14° 135° (SE) 07:33:55 145.825
M-CUBED/EXP-1 PRIME 01 May 07:35:02 07:38:48 35° 102° (ESE) 07:42:16 437.505
STRAND 1 01 May 07:35:15 07:40:11 48° 261° (W) 07:45:08 437.568
CANX-2 01 May 07:40:48 07:42:34 12° 88° (E) 07:44:20 2200.000
GOMX 1 01 May 07:40:58 07:46:30 75° 102° (ESE) 07:51:49 467.674
PRISM 01 May 07:45:25 07:49:22 51° 71° (ENE) 07:53:22 437.425
DOVE 4 01 May 07:47:10 07:52:11 45° 97° (E) 07:56:57 437.250
HO-68 01 May 07:48:01 07:53:25 22° 90° (E) 07:58:47 435.675
RS-15 01 May 07:54:37 08:06:26 58° 246° (WSW) 08:18:18 29.354- 29.394
LilacSat-2 01 May 07:54:56 07:58:23 33° 291° (WNW) 08:01:49 437.200
AUBIESAT-1 01 May 07:55:22 07:59:16 48° 104° (ESE) 08:02:52 437.475
Cosmos 2491 01 May 07:55:24 08:04:09 66° 284° (WNW) 08:12:59 435.465 / 435.565
BRITE-PL 01 May 07:57:16 08:02:42 48° 291° (WNW) 08:08:07 437.365/2234.400
Cubesat XI-IV 01 May 08:01:52 08:06:56 45° 293° (WNW) 08:11:59 437.490
Cosmos 2504 01 May 08:02:07 08:09:37 85° 263° (W) 08:17:39 435.465 / 435.565
NOAA 15 01 May 08:07:24 08:11:57 30° 297° (WNW) 08:16:30 137.62
CUTE 1.7 + AOD 2 01 May 08:12:40 08:16:04 23° 93° (E) 08:19:27 437.475
SEEDS 01 May 08:43:07 08:46:59 35° 97° (E) 08:50:50 437.485
SO-50 01 May 08:44:33 08:49:25 57° 312° (NW) 08:54:16 436.795
CINEMA 3 01 May 08:44:51 08:49:30 52° 99° (E) 08:53:54 145.822/145.860
COMPASS 1 01 May 08:50:07 08:53:50 31° 96° (E) 08:57:32 437.405
NOAA 18 01 May 08:55:57 08:59:15 16° 306° (NW) 09:02:31 137.9125
CUTE-I 01 May 08:59:12 09:02:37 18° 303° (WNW) 09:06:03 437.470
ISS 01 May 09:04:57 09:08:12 76° 151° (SSE) 09:11:28 145.825
M-CUBED/EXP-1 PRIME 01 May 09:09:52 09:13:12 24° 302° (WNW) 09:16:18 437.505
YUBILEINY 01 May 09:11:19 09:13:02 11° 292° (WNW) 09:14:46 435.215
UNISAT 6 01 May 09:14:12 09:17:59 25° 65° (ENE) 09:21:43 437.425
CANX-2 01 May 09:14:42 09:18:55 70° 285° (WNW) 09:23:06 2200.000
DELFI C3 01 May 09:19:31 09:19:48 10° 88° (E) 09:20:04 145.870
GOMX 1 01 May 09:20:06 09:23:56 20° 301° (WNW) 09:27:43 467.674
PRISM 01 May 09:22:31 09:25:01 16° 269° (W) 09:27:32 437.425
AAUSAT CUBESAT 2 01 May 09:22:37 09:26:41 55° 100° (E) 09:30:46 437.432
DOVE 4 01 May 09:25:15 09:29:38 28° 297° (WNW) 09:33:50 437.250
Oscar 11 01 May 09:26:22 09:30:01 26° 94° (E) 09:33:39 145.826/435.025
AUBIESAT-1 01 May 09:30:37 09:33:24 18° 305° (NW) 09:36:03 437.475
TIGRISAT 01 May 09:31:54 09:36:05 34° 68° (ENE) 09:40:14 435.000
HO-68 01 May 09:34:43 09:41:53 79° 290° (WNW) 09:49:02 435.675
FUNcube-1 01 May 09:35:21 09:38:55 26° 94° (E) 09:42:26 145.935
UWE-3 01 May 09:41:19 09:45:29 46° 99° (E) 09:49:31 435.000/436.395/437.385
CUBEBUG 2 01 May 09:44:45 09:49:09 72° 102° (ESE) 09:53:23 437.445
CUTE 1.7 + AOD 2 01 May 09:48:09 09:52:00 36° 291° (WNW) 09:55:53 437.475
ANTELSAT 01 May 09:55:32 10:00:07 59° 72° (ENE) 10:04:38 437.575/2403.000
Cosmos 2504 01 May 09:57:22 10:01:56 17° 282° (WNW) 10:06:40 435.465 / 435.565
Cosmos 2491 01 May 09:57:52 10:03:05 17° 308° (NW) 10:08:19 435.465 / 435.565
HUMSAT D 01 May 10:01:06 10:03:14 14° 89° (E) 10:05:22 437.325/437.525
RS-15 01 May 10:11:02 10:16:02 13° 268° (W) 10:21:02 29.354- 29.394
AIST 1 01 May 10:13:20 10:14:02 10° 62° (ENE) 10:14:44
QB50P2 01 May 10:14:11 10:17:29 22° 64° (ENE) 10:20:47 145.880/145.840
ZACube-1 01 May 10:16:10 10:20:26 75° 102° (ESE) 10:24:36 437.345
POLYITAN 1 01 May 10:16:17 10:19:36 22° 64° (ENE) 10:22:56 437.675
DUCHIFAT 1 01 May 10:16:37 10:19:45 20° 63° (ENE) 10:22:53 145.980
SEEDS 01 May 10:19:09 10:22:32 24° 294° (WNW) 10:25:55 437.485
POPSAT HIP 1 01 May 10:19:19 10:22:42 23° 64° (ENE) 10:26:06 437.405
Cosmos 2499 01 May 10:22:29 10:26:00 13° 54° (NE) 10:29:35 435.465 / 435.565
QB50P1 01 May 10:22:36 10:26:05 25° 65° (ENE) 10:29:36 145.935-145.965
CINEMA 3 01 May 10:22:45 10:26:14 21° 299° (WNW) 10:29:37 145.822/145.860
COMPASS 1 01 May 10:25:49 10:29:20 27° 293° (WNW) 10:32:51 437.405
SO-50 01 May 10:27:47 10:30:55 17° 334° (NNW) 10:34:03 436.795
ISS 01 May 10:41:46 10:44:52 38° 351° (N) 10:47:58 145.825
UNISAT 6 01 May 10:50:05 10:54:30 42° 262° (W) 10:58:53 437.425
DELFI C3 01 May 10:51:13 10:55:12 77° 285° (WNW) 10:59:11 145.870
GONETS M04 01 May 10:57:11 11:05:22 41° 68° (ENE) 11:13:26
NANOSAT C BR1 01 May 10:57:40 11:01:49 52° 72° (ENE) 11:05:59 145.865
AAUSAT CUBESAT 2 01 May 10:59:11 11:01:47 16° 298° (WNW) 11:04:23 437.432
Oscar 11 01 May 11:02:20 11:06:12 33° 292° (WNW) 11:10:04 145.826/435.025
AISAT 01 May 11:03:44 11:04:32 10° 87° (E) 11:05:19 437.250
PHONESAT 2.4 01 May 11:05:01 11:06:32 13° 158° (SSE) 11:08:04 2401.200-2431.200
BUGSAT 1 01 May 11:05:23 11:09:07 31° 67° (ENE) 11:12:54 437.445
TIGRISAT 01 May 11:08:42 11:12:47 30° 265° (W) 11:16:50 435.000
FUNcube-1 01 May 11:11:27 11:15:13 32° 292° (WNW) 11:18:54 145.935
ESTCUBE 1 01 May 11:12:59 11:16:05 18° 91° (E) 11:19:11 437.505/2401.250
UWE-3 01 May 11:18:30 11:21:38 20° 297° (WNW) 11:24:41 435.000/436.395/437.385
CUBEBUG 2 01 May 11:22:52 11:25:11 14° 301° (WNW) 11:27:28 437.445
HO-68 01 May 11:23:46 11:28:34 20° 311° (NW) 11:33:21 435.675
ANTELSAT 01 May 11:34:07 11:37:11 17° 269° (W) 11:40:13 437.575/2403.000
HUMSAT D 01 May 11:35:14 11:39:17 58° 287° (WNW) 11:43:16 437.325/437.525
CUBEBUG 1 01 May 11:43:12 11:46:54 25° 94° (E) 11:50:35 437.445
AIST 1 01 May 11:47:56 11:52:23 85° 79° (ENE) 11:56:48
QB50P2 01 May 11:48:58 11:53:03 42° 262° (W) 11:57:09 145.880/145.840
DUCHIFAT 1 01 May 11:51:03 11:55:09 46° 261° (W) 11:59:18 145.980
POLYITAN 1 01 May 11:51:06 11:55:11 42° 262° (W) 11:59:18 437.675
ZACube-1 01 May 11:54:08 11:56:08 13° 301° (WNW) 11:58:08 437.345
POPSAT HIP 1 01 May 11:54:14 11:58:17 40° 262° (W) 12:02:21 437.405
JAS-2 01 May 11:57:40 12:03:09 37° 61° (ENE) 12:09:18 435.910
QB50P1 01 May 11:57:45 12:01:43 36° 263° (W) 12:05:43 145.935-145.965
VELOX 1 01 May 12:05:25 12:09:42 41° 98° (E) 12:13:55 145.980
DX 1 01 May 12:08:31 12:12:40 39° 98° (E) 12:16:47 434.975-435.025
Cosmos 2499 01 May 12:13:18 12:20:49 61° 76° (ENE) 12:28:54 435.465 / 435.565
UKube-1 01 May 12:18:15 12:22:23 41° 98° (E) 12:26:29 .
ISS 01 May 12:18:38 12:21:46 41° 12° (NNE) 12:24:54 145.825
AO-85 01 May 12:26:12 12:30:24 23° 112° (ESE) 12:34:35 145.980
Gurwin Techsat 1B 01 May 12:34:05 12:37:51 20° 58° (ENE) 12:41:37 435.225
NANOSAT C BR1 01 May 12:35:04 12:37:52 17° 269° (W) 12:40:41 145.865
AO-7 01 May 12:35:31 12:39:04 14° 35° (NE) 12:42:39 29.400- 29.500
AISAT 01 May 12:37:09 12:41:41 90° 236° (SW) 12:46:09 437.250
50 SAT 01 May 12:37:55 12:41:33 68° 286° (WNW) 12:45:11 437.505
PHONESAT 2.4 01 May 12:40:11 12:42:47 24° 175° (S) 12:45:25 2401.200-2431.200
BUGSAT 1 01 May 12:40:50 12:44:30 28° 265° (W) 12:48:12 437.445
ESTCUBE 1 01 May 12:48:49 12:53:14 54° 289° (WNW) 12:57:39 437.505/2401.250
SPROUT 01 May 12:51:21 12:55:33 49° 99° (E) 12:59:42 437.525
Oscar 19 01 May 12:51:44 12:56:47 57° 70° (ENE) 13:01:54 437.125/150
GONETS M04 01 May 12:54:02 13:02:26 52° 271° (W) 13:10:44
CUBEBUG 1 01 May 13:19:11 13:23:17 37° 292° (WNW) 13:27:22 437.445
AIST 1 01 May 13:28:40 13:29:15 10° 279° (W) 13:29:50
TISAT 1 01 May 13:31:49 13:35:51 40° 98° (E) 13:39:49 437.305
VELOX 1 01 May 13:42:22 13:45:57 24° 296° (WNW) 13:49:30 145.980
JAS-2 01 May 13:42:23 13:48:04 45° 264° (W) 13:54:32 435.910
DX 1 01 May 13:45:07 13:48:40 24° 296° (WNW) 13:52:12 434.975-435.025
SO-50 01 May 13:53:18 13:56:06 15° 24° (NNE) 13:58:51 436.795
UKube-1 01 May 13:54:47 13:58:13 23° 296° (WNW) 14:01:38 .
ISS 01 May 13:55:07 13:58:21 60° 211° (SSW) 14:01:34 145.825
O/OREOS (USA 219) 01 May 13:58:56 13:59:22 10° 96° (E) 13:59:48 437.305
AO-85 01 May 14:05:03 14:10:31 69° 310° (NW) 14:15:53 145.980
ITAMSAT 1 01 May 14:06:41 14:11:40 50° 69° (ENE) 14:16:41 435.822/435.867
Cosmos 2499 01 May 14:07:04 14:13:31 31° 276° (W) 14:20:22 435.465 / 435.565
Gurwin Techsat 1B 01 May 14:11:58 14:17:16 70° 257° (WSW) 14:22:37 435.225
ITUPSAT 1 01 May 14:12:48 14:16:31 22° 93° (E) 14:20:14 437.325
AISAT 01 May 14:15:35 14:17:28 13° 303° (WNW) 14:19:22 437.250
PHONESAT 2.4 01 May 14:16:43 14:19:09 20° 192° (SSW) 14:21:35 2401.200-2431.200
AO-7 01 May 14:22:05 14:29:47 45° 58° (ENE) 14:37:28 29.400- 29.500
SWISSCUBE 01 May 14:22:48 14:27:01 30° 96° (E) 14:31:13 437.505
SPROUT 01 May 14:28:06 14:31:10 19° 298° (WNW) 14:34:14 437.525
CUSAT 1 01 May 14:28:10 14:29:51 13° 79° (E) 14:31:44 437.405
Oscar 19 01 May 14:32:35 14:36:29 21° 269° (W) 14:40:25 437.125/150
PCSat 01 May 14:41:07 14:41:52 10° 101° (E) 14:42:38 145.827
BEESAT 01 May 14:55:55 15:00:38 56° 101° (E) 15:05:18 436.000
TISAT 1 01 May 15:08:00 15:11:17 22° 296° (WNW) 15:14:33 437.305
SO-50 01 May 15:33:04 15:37:44 50° 46° (NE) 15:42:15 436.795
O/OREOS (USA 219) 01 May 15:33:22 15:37:58 85° 112° (ESE) 15:42:35 437.305
ISS 01 May 15:33:53 15:34:14 10° 228° (SW) 15:34:35 145.825
MOZHAYETS 4 01 May 15:41:59 15:44:52 16° 90° (E) 15:47:44
ITAMSAT 1 01 May 15:47:16 15:51:25 24° 267° (W) 15:55:35 435.822/435.867
AO-85 01 May 15:47:58 15:51:57 20° 330° (NNW) 15:55:50 145.980
KKS-1 01 May 15:49:43 15:53:35 28° 95° (E) 15:57:25 437.445
ITUPSAT 1 01 May 15:50:01 15:54:36 48° 291° (WNW) 15:59:11 437.325
SWISSCUBE 01 May 16:00:31 16:04:50 35° 294° (WNW) 16:09:08 437.505
Cosmos 2491 01 May 16:06:13 16:12:14 19° 55° (NE) 16:18:11 435.465 / 435.565
CUSAT 1 01 May 16:07:41 16:11:06 49° 288° (WNW) 16:15:35 437.405
STARS 01 May 16:10:48 16:14:25 24° 94° (E) 16:18:01 437.465
Cubesat XI-IV 01 May 16:11:50 16:13:09 11° 51° (NE) 16:14:28 437.490
NOAA 15 01 May 16:13:22 16:16:31 16° 56° (NE) 16:19:42 137.62
AO-7 01 May 16:14:29 16:22:28 51° 259° (W) 16:30:31 29.400- 29.500
HORYU 2 01 May 16:17:32 16:21:58 66° 72° (ENE) 16:26:25 437.375
PCSat 01 May 16:18:51 16:24:14 68° 119° (ESE) 16:29:39 145.827
BEESAT 01 May 16:34:33 16:38:02 20° 299° (WNW) 16:41:30 436.000
DANDE 01 May 16:36:56 16:39:48 54° 285° (WNW) 16:43:23 436.750
M-CUBED/EXP-1 PRIME 01 May 16:51:39 16:53:57 14° 52° (NE) 16:56:13 437.505
NOAA 18 01 May 17:03:24 17:08:25 37° 64° (ENE) 17:13:27 137.9125
CUTE-I 01 May 17:04:01 17:08:28 28° 62° (ENE) 17:12:56 437.470
LilacSat-2 01 May 17:06:23 17:09:02 18° 64° (ENE) 17:11:41 437.200
AUBIESAT-1 01 May 17:10:59 17:13:52 16° 54° (NE) 17:16:41 437.475
SO-50 01 May 17:14:04 17:17:57 26° 246° (WSW) 17:21:43 436.795
O/OREOS (USA 219) 01 May 17:15:13 17:18:01 16° 314° (NW) 17:20:51 437.305
GOMX 1 01 May 17:15:51 17:19:10 17° 57° (ENE) 17:22:34 467.674
MOZHAYETS 4 01 May 17:17:56 17:22:27 60° 287° (WNW) 17:26:56
DOVE 4 01 May 17:21:51 17:23:09 11° 53° (NE) 17:24:26 437.250
CUBESAT XI-V 01 May 17:22:22 17:25:56 21° 92° (E) 17:29:29 437.345
KKS-1 01 May 17:26:08 17:30:12 34° 293° (WNW) 17:34:13 437.445
BRITE-PL 01 May 17:32:48 17:37:19 40° 67° (ENE) 17:42:12 437.365/2234.400
AO-85 01 May 17:33:14 17:34:29 11° 354° (N) 17:35:44 145.980
STARS 01 May 17:46:48 17:50:54 38° 292° (WNW) 17:54:58 437.465
Cubesat XI-IV 01 May 17:46:56 17:52:10 60° 70° (ENE) 17:57:26 437.490
NOAA 15 01 May 17:50:19 17:55:36 88° 254° (WSW) 18:00:56 137.62
HORYU 2 01 May 17:56:30 17:58:59 15° 270° (W) 18:01:29 437.375
Cosmos 2491 01 May 18:01:56 18:10:49 76° 79° (E) 18:19:36 435.465 / 435.565
PCSat 01 May 18:03:34 18:08:07 27° 320° (NW) 18:12:42 145.827
CINEMA 3 01 May 18:15:37 18:17:11 11° 55° (NE) 18:18:45 145.822/145.860
YUBILEINY 01 May 18:18:26 18:26:14 38° 85° (E) 18:34:00 435.215
HO-68 01 May 18:20:26 18:26:02 26° 54° (NE) 18:31:39 435.675
M-CUBED/EXP-1 PRIME 01 May 18:23:04 18:27:48 80° 69° (ENE) 18:32:29 437.505
BEESAT 3 01 May 18:33:32 18:36:52 27° 116° (ESE) 18:40:13 437.485
CANX-2 01 May 18:36:39 18:38:56 14° 60° (ENE) 18:41:12 2200.000
BEESAT 2 01 May 18:38:39 18:41:29 19° 113° (ESE) 18:44:19 435.950
LilacSat-2 01 May 18:39:20 18:43:03 43° 261° (W) 18:46:47 437.200
AUBIESAT-1 01 May 18:43:07 18:47:48 80° 251° (WSW) 18:52:25 437.475
CUTE-I 01 May 18:43:10 18:48:17 47° 261° (W) 18:53:27 437.470
NOAA 18 01 May 18:44:01 18:49:05 36° 263° (W) 18:54:09 137.9125
GOMX 1 01 May 18:51:29 18:56:31 81° 258° (WSW) 19:01:54 467.674
DOVE 4 01 May 18:54:43 18:59:44 61° 72° (ENE) 19:04:58 437.250
Cosmos 2504 01 May 18:56:16 18:59:24 13° 75° (ENE) 19:02:32 435.465 / 435.565
CUBESAT XI-V 01 May 18:59:03 19:03:34 49° 289° (WNW) 19:08:06 437.345
CUTE 1.7 + AOD 2 01 May 19:08:18 19:11:46 25° 66° (ENE) 19:15:13 437.475
BRITE-PL 01 May 19:11:43 19:15:55 29° 268° (W) 19:20:27 437.365/2234.400
CUBEBUG 2 01 May 19:11:45 19:13:47 13° 58° (ENE) 19:15:49 437.445
AO-85 01 May 19:14:32 19:17:15 14° 20° (NNE) 19:19:52 145.980
Cubesat XI-IV 01 May 19:28:42 19:32:40 21° 269° (W) 19:36:38 437.490
NOAA 15 01 May 19:33:50 19:36:09 13° 273° (W) 19:38:29 137.62
SEEDS 01 May 19:37:40 19:41:29 36° 69° (ENE) 19:45:19 437.485
ZACube-1 01 May 19:41:38 19:43:12 12° 58° (ENE) 19:44:45 437.345
STRAND 1 01 May 19:42:25 19:47:20 45° 99° (E) 19:52:12 437.568
COMPASS 1 01 May 19:43:48 19:47:27 31° 68° (ENE) 19:51:06 437.405
CINEMA 3 01 May 19:48:26 19:53:25 68° 73° (ENE) 19:58:25 145.822/145.860
PCSat 01 May 19:52:45 19:53:32 10° 345° (NNW) 19:54:18 145.827
Cosmos 2491 01 May 19:59:52 20:06:45 27° 281° (W) 20:13:37 435.465 / 435.565
M-CUBED/EXP-1 PRIME 01 May 20:00:17 20:02:49 14° 266° (W) 20:05:20 437.505
AIST 2 01 May 20:01:13 20:02:03 10° 108° (ESE) 20:02:52 435.215
HO-68 01 May 20:05:54 20:13:04 79° 254° (WSW) 20:20:17 435.675
DELFI C3 01 May 20:09:04 20:09:34 10° 58° (ENE) 20:10:03 145.870
CANX-2 01 May 20:10:04 20:14:17 68° 259° (WSW) 20:18:30 2200.000
BEESAT 3 01 May 20:10:46 20:14:28 37° 315° (NW) 20:18:10 437.485
RS-15 01 May 20:14:03 20:21:17 20° 96° (E) 20:28:40 29.354- 29.394
YUBILEINY 01 May 20:14:14 20:22:44 55° 286° (WNW) 20:31:17 435.215
BEESAT 2 01 May 20:15:06 20:19:00 52° 312° (NW) 20:22:56 435.950
AAUSAT CUBESAT 2 01 May 20:15:33 20:19:34 53° 73° (ENE) 20:23:36 437.432
AUBIESAT-1 01 May 20:22:10 20:22:54 10° 268° (W) 20:23:39 437.475
Oscar 11 01 May 20:23:56 20:27:42 30° 67° (ENE) 20:31:28 145.826/435.025
FUNcube-1 01 May 20:33:21 20:37:21 32° 68° (ENE) 20:41:18 145.935
GOMX 1 01 May 20:33:50 20:35:32 11° 277° (W) 20:37:15 467.674
DOVE 4 01 May 20:34:06 20:37:52 20° 271° (W) 20:41:44 437.250
UWE-3 01 May 20:40:31 20:45:04 56° 72° (ENE) 20:49:34 435.000/436.395/437.385
CUTE 1.7 + AOD 2 01 May 20:43:37 20:47:29 34° 264° (W) 20:51:21 437.475
Cosmos 2504 01 May 20:44:11 20:51:26 75° 96° (E) 20:58:36 435.465 / 435.565
CUBEBUG 2 01 May 20:44:57 20:49:43 85° 78° (ENE) 20:54:25 437.445
AO-85 01 May 20:54:24 20:59:08 42° 43° (NE) 21:03:27 145.980
HUMSAT D 01 May 20:55:21 20:57:59 16° 62° (ENE) 21:00:34 437.325/437.525
PRISM 01 May 20:59:00 21:03:07 55° 101° (E) 21:07:12 437.425
SEEDS 01 May 21:13:59 21:17:18 23° 267° (W) 21:20:39 437.485
ZACube-1 01 May 21:14:15 21:18:48 84° 77° (ENE) 21:23:17 437.345
COMPASS 1 01 May 21:19:32 21:23:02 26° 266° (W) 21:26:32 437.405
STRAND 1 01 May 21:22:01 21:26:18 28° 297° (WNW) 21:30:34 437.568
CINEMA 3 01 May 21:27:44 21:31:00 17° 271° (W) 21:34:17 145.822/145.860
AIST 2 01 May 21:35:42 21:39:50 87° 127° (SE) 21:44:01 435.215
DELFI C3 01 May 21:39:50 21:43:48 89° 257° (WSW) 21:47:46 145.870
AAUSAT CUBESAT 2 01 May 21:52:58 21:55:24 15° 270° (W) 21:57:51 437.432
BEESAT 2 01 May 21:56:08 21:57:46 12° 333° (NNW) 21:59:25 435.950
HO-68 01 May 21:57:51 22:01:55 16° 274° (W) 22:06:00 435.675
Oscar 11 01 May 22:00:01 22:03:48 29° 265° (W) 22:07:37 145.826/435.025
AISAT 01 May 22:03:06 22:05:42 15° 59° (ENE) 22:08:18 437.250
FUNcube-1 01 May 22:09:37 22:13:35 30° 265° (W) 22:17:31 145.935
ESTCUBE 1 01 May 22:15:20 22:18:55 24° 64° (ENE) 22:22:32 437.505/2401.250
YUBILEINY 01 May 22:18:11 22:22:00 13° 312° (NW) 22:25:50 435.215
UWE-3 01 May 22:18:42 22:21:52 18° 270° (W) 22:25:00 435.000/436.395/437.385
RS-15 01 May 22:20:09 22:31:24 74° 120° (ESE) 22:43:19 29.354- 29.394
CUBEBUG 2 01 May 22:25:01 22:26:56 12° 273° (W) 22:28:49 437.445
HUMSAT D 01 May 22:29:02 22:33:11 58° 259° (W) 22:37:20 437.325/437.525
AO-85 01 May 22:35:15 22:39:30 31° 245° (WSW) 22:43:24 145.980
PRISM 01 May 22:35:21 22:38:02 17° 299° (WNW) 22:40:44 437.425
UNISAT 6 01 May 22:38:53 22:42:48 31° 96° (E) 22:46:38 437.425
Cosmos 2504 01 May 22:40:05 22:45:37 23° 298° (WNW) 22:51:09 435.465 / 435.565
CUBEBUG 1 01 May 22:41:56 22:45:46 31° 67° (ENE) 22:49:40 437.445
ZACube-1 01 May 22:54:09 22:55:39 11° 273° (W) 22:57:09 437.345
TIGRISAT 01 May 22:56:42 23:00:53 45° 99° (E) 23:04:59 435.000
VELOX 1 01 May 23:05:24 23:09:42 53° 72° (ENE) 23:14:04 145.980
DX 1 01 May 23:06:40 23:10:53 50° 70° (ENE) 23:15:08 434.975-435.025
UKube-1 01 May 23:15:26 23:19:37 51° 71° (ENE) 23:23:51 .
AIST 2 01 May 23:16:02 23:18:54 18° 327° (NNW) 23:21:46 435.215
50 SAT 01 May 23:19:08 23:22:48 85° 72° (ENE) 23:26:28 437.505
PCSat 01 May 23:20:53 23:25:15 24° 38° (NE) 23:29:36 145.827
ANTELSAT 01 May 23:20:54 23:25:18 85° 106° (ESE) 23:29:35 437.575/2403.000
QB50P2 01 May 23:31:08 23:34:38 24° 94° (E) 23:38:07 145.880/145.840
DUCHIFAT 1 01 May 23:32:37 23:35:56 22° 93° (E) 23:39:13 145.980
POLYITAN 1 01 May 23:33:16 23:36:47 25° 94° (E) 23:40:16 437.675
POPSAT HIP 1 01 May 23:36:10 23:39:44 26° 94° (E) 23:43:17 437.405
AISAT 01 May 23:37:13 23:41:39 71° 258° (WSW) 23:46:08 437.250
QB50P1 01 May 23:39:26 23:43:08 28° 95° (E) 23:46:47 145.935-145.965
SPROUT 01 May 23:47:33 23:51:46 55° 72° (ENE) 23:56:01 437.525
ESTCUBE 1 01 May 23:51:19 23:55:31 41° 262° (W) 23:59:48 437.505/2401.250
O/OREOS (USA 219) 02 May 00:01:27 00:05:37 34° 56° (NE) 00:09:44 437.305
GONETS M04 02 May 00:02:14 00:10:17 41° 86° (E) 00:18:19
NANOSAT C BR1 02 May 00:14:37 00:18:50 63° 101° (E) 00:23:01 145.865
UNISAT 6 02 May 00:15:43 00:19:28 28° 294° (WNW) 00:23:08 437.425
CUBEBUG 1 02 May 00:18:11 00:22:02 30° 265° (W) 00:25:58 437.445
BUGSAT 1 02 May 00:19:12 00:23:04 33° 97° (E) 00:26:50 437.445
AIST 1 02 May 00:20:17 00:24:20 42° 93° (E) 00:28:28
TISAT 1 02 May 00:26:07 00:30:10 45° 70° (ENE) 00:34:16 437.305
BEESAT 02 May 00:30:26 00:32:47 14° 56° (ENE) 00:35:08 436.000
RS-15 02 May 00:33:45 00:44:48 48° 328° (NNW) 00:56:27 29.354- 29.394
TIGRISAT 02 May 00:34:03 00:37:18 21° 297° (WNW) 00:40:29 435.000
VELOX 1 02 May 00:43:31 00:46:31 18° 269° (W) 00:49:32 145.980
DX 1 02 May 00:44:20 00:47:22 18° 268° (W) 00:50:25 434.975-435.025
JAS-2 02 May 00:47:22 00:54:00 30° 91° (E) 01:00:40 435.910
UKube-1 02 May 00:53:03 00:55:59 18° 268° (W) 00:58:56 .
CUSAT 1 02 May 00:53:52 00:59:41 28° 66° (ENE) 01:06:15 437.405
Cosmos 2499 02 May 00:54:29 01:01:00 42° 88° (E) 01:07:34 435.465 / 435.565
ANTELSAT 02 May 00:59:33 01:01:20 12° 303° (WNW) 01:03:08 437.575/2403.000
Oscar 19 02 May 01:01:27 01:04:34 16° 89° (E) 01:07:40 437.125/150
PCSat 02 May 01:03:50 01:09:17 80° 239° (WSW) 01:14:43 145.827
QB50P2 02 May 01:06:39 01:10:32 35° 292° (WNW) 01:14:22 145.880/145.840
DUCHIFAT 1 02 May 01:07:51 01:11:47 38° 291° (WNW) 01:15:41 145.980
POLYITAN 1 02 May 01:08:49 01:12:40 34° 292° (WNW) 01:16:30 437.675
BEESAT 3 02 May 01:11:31 01:12:41 11° 26° (NNE) 01:13:51 437.485
POPSAT HIP 1 02 May 01:11:44 01:15:35 33° 292° (WNW) 01:19:22 437.405
QB50P1 02 May 01:15:10 01:18:55 30° 293° (WNW) 01:22:37 145.935-145.965
ITUPSAT 1 02 May 01:22:14 01:26:34 36° 67° (ENE) 01:30:55 437.325
SPROUT 02 May 01:25:20 01:28:05 16° 270° (W) 01:30:50 437.525
DANDE 02 May 01:26:15 01:31:10 24° 67° (ENE) 01:36:58 436.750
SWISSCUBE 02 May 01:31:59 01:36:33 49° 70° (ENE) 01:41:09 437.505
O/OREOS (USA 219) 02 May 01:41:01 01:44:56 29° 255° (WSW) 01:48:49 437.305
NANOSAT C BR1 02 May 01:51:36 01:54:06 15° 300° (WNW) 01:56:36 145.865
BUGSAT 1 02 May 01:54:48 01:58:19 26° 295° (WNW) 02:01:46 437.445
GONETS M04 02 May 01:58:21 02:06:55 52° 287° (WNW) 02:15:31
AIST 1 02 May 01:58:54 02:02:10 20° 292° (WNW) 02:05:27
TISAT 1 02 May 02:02:58 02:06:03 19° 268° (W) 02:09:10 437.305
BEESAT 02 May 02:05:07 02:09:53 90° 348° (NNW) 02:14:41 436.000
ITAMSAT 1 02 May 02:17:59 02:20:33 14° 88° (E) 02:23:06 435.822/435.867
Gurwin Techsat 1B 02 May 02:25:12 02:30:08 37° 97° (E) 02:35:01 435.225
JAS-2 02 May 02:31:49 02:39:29 70° 289° (WNW) 02:47:16 435.910
CUSAT 1 02 May 02:35:21 02:42:18 73° 262° (W) 02:50:17 437.405
Oscar 19 02 May 02:39:16 02:44:30 76° 287° (WNW) 02:49:40 437.125/150
MOZHAYETS 4 02 May 02:46:37 02:50:11 23° 64° (ENE) 02:53:45
BEESAT 3 02 May 02:47:33 02:51:23 45° 47° (NE) 02:55:10 437.485
Cosmos 2499 02 May 02:47:36 02:54:09 39° 290° (WNW) 03:00:46 435.465 / 435.565
PCSat 02 May 02:49:29 02:51:48 13° 258° (WSW) 02:54:06 145.827
KKS-1 02 May 02:50:25 02:54:33 37° 68° (ENE) 02:58:42 437.445
RS-15 02 May 02:50:35 03:01:04 33° 1° (N) 03:11:52 29.354- 29.394
BEESAT 2 02 May 02:52:51 02:56:31 33° 44° (NE) 03:00:10 435.950
ITUPSAT 1 02 May 03:00:19 03:04:28 29° 265° (W) 03:08:37 437.325
DANDE 02 May 03:08:09 03:14:23 77° 262° (W) 03:22:13 436.750
STARS 02 May 03:10:06 03:14:03 32° 67° (ENE) 03:18:01 437.465
SWISSCUBE 02 May 03:11:00 03:14:37 21° 268° (W) 03:18:16 437.505
BEESAT 02 May 03:46:49 03:48:21 11° 273° (W) 03:49:54 436.000
ITAMSAT 1 02 May 03:55:29 04:00:42 86° 286° (WNW) 04:05:54 435.822/435.867
GONETS M04 02 May 04:02:48 04:06:21 13° 313° (NW) 04:09:55
Gurwin Techsat 1B 02 May 04:05:16 04:10:02 35° 295° (WNW) 04:14:48 435.225
AO-7 02 May 04:12:04 04:20:05 48° 100° (E) 04:28:03 29.400- 29.500
AIST 2 02 May 04:16:22 04:19:46 24° 38° (NE) 04:23:09 435.215
JAS-2 02 May 04:18:19 04:23:16 19° 309° (NW) 04:28:21 435.910
CUSAT 1 02 May 04:19:29 04:23:36 16° 278° (W) 04:27:58 437.405
Oscar 19 02 May 04:20:35 04:22:57 13° 306° (NW) 04:25:19 437.125/150
MOZHAYETS 4 02 May 04:22:44 04:27:06 45° 262° (W) 04:31:30
YUBILEINY 02 May 04:24:15 04:30:49 23° 58° (ENE) 04:37:22 435.215
BEESAT 3 02 May 04:25:48 04:28:50 21° 246° (WSW) 04:31:51 437.485
KKS-1 02 May 04:27:28 04:31:12 26° 265° (W) 04:34:59 437.445
CUBESAT XI-V 02 May 04:28:31 04:32:26 29° 66° (ENE) 04:36:24 437.345
BEESAT 2 02 May 04:30:48 04:34:20 30° 243° (WSW) 04:37:50 435.950
STARS 02 May 04:46:31 04:50:24 29° 264° (W) 04:54:19 437.465
DANDE 02 May 04:53:00 04:56:40 16° 276° (W) 05:00:45 436.750
RS-15 02 May 05:05:29 05:17:14 50° 34° (NE) 05:29:10 29.354- 29.394
Cosmos 2491 02 May 05:14:22 05:19:40 18° 74° (ENE) 05:24:59 435.465 / 435.565
NOAA 18 02 May 05:24:49 05:26:08 11° 86° (E) 05:27:27 137.9125
STRAND 1 02 May 05:25:13 05:27:53 14° 55° (NE) 05:30:34 437.568
BRITE-PL 02 May 05:35:50 05:38:23 13° 84° (E) 05:40:55 437.365/2234.400
ITAMSAT 1 02 May 05:36:37 05:39:26 15° 305° (NW) 05:42:14 435.822/435.867
HORYU 2 02 May 05:41:49 05:46:17 86° 101° (E) 05:50:42 437.375
AIST 2 02 May 05:54:29 05:58:33 55° 238° (WSW) 06:02:35 435.215
Cubesat XI-IV 02 May 06:01:59 06:05:40 19° 90° (E) 06:09:20 437.490
NOAA 15 02 May 06:02:47 06:07:19 28° 94° (E) 06:11:50 137.62
AO-7 02 May 06:05:02 06:12:51 47° 301° (WNW) 06:20:40 29.400- 29.500
CUBESAT XI-V 02 May 06:05:30 06:09:43 35° 264° (W) 06:13:59 437.345
LilacSat-2 02 May 06:10:38 06:13:04 16° 91° (E) 06:15:28 437.200
YUBILEINY 02 May 06:20:12 06:28:58 89° 80° (E) 06:37:42 435.215
Cosmos 2504 02 May 06:32:02 06:38:40 33° 68° (ENE) 06:45:39 435.465 / 435.565
GOMX 1 02 May 06:50:42 06:55:25 29° 92° (E) 06:59:59 467.674
DOVE 4 02 May 06:52:23 06:55:15 15° 86° (E) 06:58:03 437.250
CUTE-I 02 May 06:56:46 07:02:01 54° 101° (E) 07:07:12 437.470
STRAND 1 02 May 07:01:13 07:06:19 86° 75° (ENE) 07:11:28 437.568
NOAA 18 02 May 07:02:15 07:07:44 75° 104° (ESE) 07:13:11 137.9125
